MDT,Max TemperatureF,Mean TemperatureF,Min TemperatureF,Max Dew PointF,MeanDew PointF,Min DewpointF,Max Humidity, Mean Humidity, Min Humidity, Max Sea Level PressureIn, Mean Sea Level PressureIn, Min Sea Level PressureIn, Max VisibilityMiles, Mean VisibilityMiles, Min VisibilityMiles, Max Wind SpeedMPH, Mean Wind SpeedMPH, Max Gust SpeedMPH,PrecipitationIn, CloudCover, Events, WindDirDegrees
2012-9-1,91,75,59,54,49,45,72,43,21,29.96,29.82,29.77,10,10,10,20,12,30,0.00,1,Rain,210
2012-9-2,82,66,50,55,38,18,88,42,9,29.98,29.93,29.83,10,10,8,22,10,29,0.01,3,Rain,264
2012-9-3,82,64,46,36,30,25,66,34,12,29.98,29.95,29.91,10,10,10,20,6,24,0.00,0,,293
2012-9-4,77,59,41,43,35,32,81,49,19,30.09,29.98,29.93,10,10,10,25,7,37,0.00,1,,300
2012-9-5,75,60,44,39,35,32,81,46,21,30.09,30.01,29.92,10,10,10,17,10,22,0.00,0,,249
2012-9-6,69,56,42,43,38,32,81,52,33,30.20,30.05,29.93,10,10,10,18,7,28,0.00,2,,351
2012-9-7,71,52,32,41,35,30,100,57,23,30.29,30.24,30.20,10,10,10,17,5,23,0.00,0,,301
2012-9-8,71,56,39,45,33,25,62,44,17,30.28,30.22,30.18,10,10,10,15,9,22,0.00,0,,341
2012-9-9,91,66,41,32,28,23,53,27,10,30.20,29.96,29.73,10,10,10,23,12,28,0.00,0,,165
2012-9-10,89,70,51,50,35,32,59,30,13,29.76,29.70,29.66,10,10,10,16,8,20,0.01,1,Rain-Thunderstorm,278
2012-9-11,68,56,37,48,28,18,58,34,18,30.14,29.96,29.75,10,10,10,26,14,36,0.00,2,Rain,318
2012-9-12,66,47,28,23,19,16,69,35,14,30.34,30.26,30.14,10,10,10,17,6,31,0.00,0,,277
2012-9-13,73,50,28,32,25,18,74,40,14,30.39,30.33,30.28,10,10,10,26,9,38,0.00,0,,260
2012-9-14,80,56,33,32,30,28,81,42,15,30.39,30.25,30.05,10,10,10,15,7,23,0.00,1,,171
2012-9-15,84,64,44,36,29,25,58,29,12,30.06,30.02,30.00,10,10,10,17,9,22,0.00,2,,279
2012-9-16,62,53,44,46,38,32,93,60,32,30.23,30.16,30.04,10,10,10,18,8,23,0.03,5,Rain,69
2012-9-17,59,49,39,43,31,19,93,57,23,30.24,30.17,30.06,10,10,9,13,7,20,0.00,4,,314
2012-9-18,80,62,44,32,29,25,49,31,14,30.06,29.91,29.80,10,10,10,22,13,32,0.00,2,,273
2012-9-19,64,55,46,36,31,27,57,40,24,30.13,30.06,29.87,10,10,10,28,14,34,0.00,1,,319
2012-9-20,68,54,41,32,32,28,70,44,24,30.09,30.03,29.98,10,10,10,31,8,43,0.00,2,,287
2012-9-21,66,52,37,34,31,27,75,47,24,30.20,30.09,30.02,10,10,10,23,10,30,0.00,0,,310
2012-9-22,64,48,32,28,26,25,75,48,22,30.31,30.25,30.20,10,10,10,16,8,20,0.00,0,,129
2012-9-23,71,54,37,28,26,23,60,39,19,30.23,30.18,30.10,10,10,10,16,9,25,0.00,0,,148
2012-9-24,80,58,35,32,29,25,70,39,16,30.10,29.98,29.90,10,10,10,15,5,21,0.00,1,,267
2012-9-25,77,57,37,39,35,32,81,49,22,30.00,29.95,29.92,10,10,5,12,4,,0.00,1,,145
2012-9-26,82,62,41,37,33,32,70,41,16,30.10,30.03,30.00,10,10,10,17,8,23,0.00,1,,172
2012-9-27,73,62,50,48,43,37,87,53,31,30.16,30.12,30.07,10,10,10,15,7,25,0.00,4,Rain-Thunderstorm,170
2012-9-28,78,62,46,46,40,28,82,46,18,30.15,30.08,30.01,10,10,10,23,9,32,0.00,2,,145
2012-9-29,84,66,48,41,35,28,62,37,18,30.01,29.96,29.93,10,10,10,17,12,22,0.00,1,,207
2012-9-30,71,56,42,48,40,32,100,60,33,30.26,30.09,30.01,10,10,6,20,4,26,0.02,3,Rain,354